Regional Weather Roundup
Issued by NWS

Home | Current Version | Previous Version | Text Only | Print | Product List | Glossary On
Versions: 1 2 3 4 5 6 7 8 9 10 11 12 13 14 15 16 17 18 19 20 21 22 23 24 25 26 27
000
ASUS44 KJAN 230310
RWRMS

MISSISSIPPI HOURLY WEATHER ROUNDUP
NATIONAL WEATHER SERVICE JACKSON MS
1000 PM CDT MON MAY 22 2017

NOTE: "FAIR: INDICATES FEW OR NO CLOUDS BELOW 12,000 FEET WITH NO
SIGNIFICANT WEATHER AND/OR OBSTRUCTIONS TO VISIBILITY.

MSZ001>002-007>008-010>013-018>021-025>028-034>036-230400-
NORTHWEST MISSISSIPPI

CITY           SKY/WX    TMP DP  RH WIND       PRES   REMARKS
BATESVILLE     MOCLDY    66  63  88 CALM      29.94F
CLARKSDALE       N/A     66  64  94 MISG      29.94F
CLEVELAND      CLOUDY    64  64 100 CALM      29.94S
GREENWOOD      CLOUDY    66  64  93 CALM      29.94R
GREENVILLE     CLOUDY    64  60  87 N5        29.94S
OXFORD         FAIR      64  61  88 NE3       29.96S
TUNICA         CLOUDY    64  61  88 NW5       29.95S
WINONA         RAIN      64  64 100 CALM      29.95S
$$

MSZ003>006-009-014>017-022>024-029>033-037>039-230400-
NORTHEAST MISSISSIPPI

CITY           SKY/WX    TMP DP  RH WIND       PRES   REMARKS
COLUMBUS AFB   DRIZZLE   68  68 100 N5        29.92S
CORINTH        CLOUDY    66  63  88 CALM      29.95R
GOLDN TRIANGLE CLOUDY    66  63  88 CALM      29.88F
STARKVILLE     FAIR      64  64 100 CALM      29.92F
TUPELO         CLOUDY    68  65  90 CALM      29.92F
$$

MSZ040-058-230400-
CENTRAL MISSISSIPPI

CITY           SKY/WX    TMP DP  RH WIND       PRES   REMARKS
JACKSON INTL   RAIN      66  65  96 NE3       29.93S
JACKSON HAWKNS LGT RAIN  67  65  93 CALM      29.93S
MADISON        RAIN      64  64 100 CALM      29.93S
MERIDIAN KEY   LGT RAIN  69  67  93 N6        29.93S
MERIDIAN NAS   LGT RAIN  69  64  84 N5        29.94S
VICKSBURG VKS  CLOUDY    66  66 100 CALM      29.89S
$$

MSZ059>079-230400-
SOUTH MISSISSIPPI

CITY           SKY/WX    TMP DP  RH WIND       PRES   REMARKS
COLUMBIA       CLOUDY    70  68  94 CALM      29.95R
HATTIESBURG    CLOUDY    70  68  93 CALM      29.92S
LAUREL         CLOUDY    69  69 100 CALM      29.92S
MCCOMB         LGT RAIN  71  67  87 SE7       29.91R FOG
NATCHEZ        RAIN      67  66  97 NE8       29.90R
PINE BELT      NOT AVBL
$$

MSZ080>082-230400-
COASTAL MISSISSIPPI

CITY           SKY/WX    TMP DP  RH WIND       PRES   REMARKS
BILOXI         MOCLDY    73  70  88 CALM      29.91R
PASCAGOULA     CLOUDY    72  69  90 CALM      29.91S
GULFPORT       MOCLDY    73  72  96 CALM      29.91R
$$

LAZ007>009-015>016-023>026-230400-
NORTHEAST LOUISIANA

CITY           SKY/WX    TMP DP  RH WIND       PRES   REMARKS
BASTROP        CLOUDY    62  61  97 CALM      29.94F
TALLULAH/VBURG LGT RAIN  67  65  93 E5        29.92R
VIDALIA        RAIN      67  66  97 E6        29.88S
$$




USA.gov is the U.S. government's official web portal to all federal, state and local government web resources and services.